FDX7 HKJK-LIMC

Flight info

Callsign FDX7
Flight time N/A
Altitude 28000
Route NAKAT4B NAKAT UL433 NN UW325 SIPKI/N0513F290 UT325 POGBA/N0510F300 UT325 FL UT237 INISA UM998 NEBRA/N0502F320 UM998 CSO UA605 CIRTA DCT BUKID DCT NEGAT DCT OMEDA DCT RAPUR/N0493F300 DCT TORTU DCT ANAKI P860 DEVOX
Aircraft B77L/H-SDE1E2E3FGHIJ2J3J4J5M1RWXY/LB1D1

Departure

Time 2026-05-08 00:16
Airport Jomo Kenyatta International Airport (HKJK)

Arrival

Time N/A
Airport Milan Malpensa International Airport (LIMC)
Time Latitude Longitude Altitude Speed Heading
2026-05-07 23:45 -1.33344 36.91605 5329 ft 0 kts 143°
2026-05-08 00:04 -1.33329 36.91594 5335 ft 4 kts 143°
2026-05-08 00:05 -1.33308 36.91577 5335 ft 4 kts 143°
2026-05-08 00:05 -1.33288 36.91563 5335 ft 4 kts 140°
2026-05-08 00:05 -1.33274 36.91545 5335 ft 4 kts 81°
2026-05-08 00:05 -1.33286 36.91524 5340 ft 4 kts 51°
2026-05-08 00:06 -1.33290 36.91519 5337 ft 0 kts 53°
2026-05-08 00:09 -1.33274 36.91540 5336 ft 7 kts 53°
2026-05-08 00:09 -1.33249 36.91574 5334 ft 5 kts 53°
2026-05-08 00:09 -1.33232 36.91597 5333 ft 3 kts 50°
2026-05-08 00:10 -1.33213 36.91618 5334 ft 8 kts 46°
2026-05-08 00:10 -1.33142 36.91677 5335 ft 18 kts 42°
2026-05-08 00:10 -1.33087 36.91740 5332 ft 17 kts 52°
2026-05-08 00:10 -1.33039 36.91802 5339 ft 5 kts 38°
2026-05-08 00:11 -1.33033 36.91806 5336 ft 0 kts 31°
2026-05-08 00:11 -1.33031 36.91807 5336 ft 2 kts 31°
2026-05-08 00:11 -1.32995 36.91815 5344 ft 8 kts 349°
2026-05-08 00:11 -1.32934 36.91774 5344 ft 13 kts 325°
2026-05-08 00:12 -1.32854 36.91718 5344 ft 6 kts 325°
2026-05-08 00:12 -1.32849 36.91715 5345 ft 0 kts 325°
2026-05-08 00:13 -1.32846 36.91712 5344 ft 3 kts 325°
2026-05-08 00:13 -1.32809 36.91685 5345 ft 10 kts 323°
2026-05-08 00:13 -1.32744 36.91671 5345 ft 10 kts 27°
2026-05-08 00:13 -1.32705 36.91712 5342 ft 0 kts 53°
2026-05-08 00:15 -1.32678 36.91748 5340 ft 18 kts 53°
2026-05-08 00:15 -1.32487 36.92006 5335 ft 83 kts 54°
2026-05-08 00:15 -1.31998 36.92676 5316 ft 155 kts 53°
2026-05-08 00:15 -1.31228 36.93723 5349 ft 211 kts 52°
2026-05-08 00:16 -1.30341 36.94874 6155 ft 203 kts 52°
2026-05-08 00:16 -1.29482 36.95975 7059 ft 201 kts 52°
2026-05-08 00:16 -1.28618 36.97098 7420 ft 209 kts 54°
2026-05-08 00:16 -1.27731 36.98316 7522 ft 224 kts 54°
2026-05-08 00:17 -1.26777 36.99623 7701 ft 242 kts 54°
2026-05-08 00:17 -1.25735 37.01037 7855 ft 261 kts 54°
2026-05-08 00:17 -1.24633 37.02523 8203 ft 272 kts 53°
2026-05-08 00:17 -1.23495 37.04052 8727 ft 276 kts 53°
2026-05-08 00:18 -1.22343 37.05598 9308 ft 279 kts 53°
2026-05-08 00:18 -1.21178 37.07160 9888 ft 281 kts 53°
2026-05-08 00:18 -1.20001 37.08730 10429 ft 283 kts 50°
2026-05-08 00:18 -1.18437 37.09948 10616 ft 297 kts 19°
2026-05-08 00:19 -1.16352 37.10177 10752 ft 314 kts 348°
2026-05-08 00:19 -1.14315 37.09291 10900 ft 332 kts 322°
2026-05-08 00:19 -1.12648 37.07611 11047 ft 351 kts 306°
2026-05-08 00:19 -1.11326 37.05489 11173 ft 368 kts 294°
2026-05-08 00:20 -1.10574 37.03004 11459 ft 381 kts 280°
2026-05-08 00:20 -1.10183 37.00352 11940 ft 389 kts 276°
2026-05-08 00:20 -1.09891 36.97681 12539 ft 393 kts 276°
2026-05-08 00:20 -1.09591 36.94975 13656 ft 386 kts 278°
2026-05-08 00:21 -1.09262 36.92329 14536 ft 379 kts 277°
2026-05-08 00:21 -1.08900 36.89694 14674 ft 396 kts 278°
2026-05-08 00:21 -1.08489 36.86941 15008 ft 406 kts 278°
2026-05-08 00:21 -1.08047 36.84131 15403 ft 412 kts 278°
2026-05-08 00:22 -1.07587 36.81290 15932 ft 415 kts 279°
2026-05-08 00:22 -1.07118 36.78441 16513 ft 417 kts 279°
2026-05-08 00:22 -1.06644 36.75577 17064 ft 419 kts 279°
2026-05-08 00:22 -1.06165 36.72696 17567 ft 422 kts 279°
2026-05-08 00:23 -1.05682 36.69786 18065 ft 426 kts 279°
2026-05-08 00:23 -1.05195 36.66855 18535 ft 429 kts 279°
2026-05-08 00:23 -1.04703 36.63897 18960 ft 432 kts 279°
2026-05-08 00:23 -1.04210 36.60926 19391 ft 435 kts 279°
2026-05-08 00:24 -1.03715 36.57941 19819 ft 437 kts 279°
2026-05-08 00:24 -1.03217 36.54934 20225 ft 440 kts 279°
2026-05-08 00:24 -1.02715 36.51904 20625 ft 443 kts 279°
2026-05-08 00:24 -1.02211 36.48865 21012 ft 446 kts 279°
2026-05-08 00:25 -1.01702 36.45794 21405 ft 449 kts 279°
2026-05-08 00:25 -1.01190 36.42706 21797 ft 451 kts 279°
2026-05-08 00:25 -1.00676 36.39607 22183 ft 454 kts 279°
2026-05-08 00:25 -1.00158 36.36483 22545 ft 457 kts 279°
2026-05-08 00:26 -0.99638 36.33343 22915 ft 460 kts 279°
2026-05-08 00:26 -0.99114 36.30184 23257 ft 463 kts 279°
2026-05-08 00:26 -0.98586 36.27001 23605 ft 465 kts 279°
2026-05-08 00:26 -0.98056 36.23808 23931 ft 467 kts 279°
2026-05-08 00:27 -0.97524 36.20597 24233 ft 469 kts 279°
2026-05-08 00:27 -0.96989 36.17374 24509 ft 472 kts 279°
2026-05-08 00:27 -0.96452 36.14134 24797 ft 474 kts 279°
2026-05-08 00:27 -0.95911 36.10872 25077 ft 476 kts 279°
2026-05-08 00:28 -0.95369 36.07605 25370 ft 478 kts 279°
2026-05-08 00:28 -0.94824 36.04321 25677 ft 479 kts 279°
2026-05-08 00:28 -0.94278 36.01031 25946 ft 482 kts 279°
2026-05-08 00:28 -0.93730 35.97724 26197 ft 484 kts 279°
2026-05-08 00:29 -0.93176 35.94387 26440 ft 487 kts 279°
2026-05-08 00:29 -0.92622 35.91052 26725 ft 488 kts 279°
2026-05-08 00:29 -0.92066 35.87697 27039 ft 489 kts 279°
2026-05-08 00:29 -0.91509 35.84342 27310 ft 491 kts 279°
2026-05-08 00:30 -0.90948 35.80961 27559 ft 494 kts 279°
2026-05-08 00:30 -0.90386 35.77576 27788 ft 496 kts 279°
2026-05-08 00:30 -0.89820 35.74165 28019 ft 498 kts 279°
2026-05-08 00:30 -0.89251 35.70737 28068 ft 501 kts 279°
2026-05-08 00:31 -0.88113 35.63885 28126 ft 499 kts 279°
2026-05-08 00:31 -0.86976 35.57037 28115 ft 499 kts 279°
2026-05-08 00:32 -0.85847 35.50237 28094 ft 499 kts 279°
2026-05-08 00:32 -0.84713 35.43405 28084 ft 499 kts 279°
2026-05-08 00:33 -0.83573 35.36565 28083 ft 498 kts 280°
2026-05-08 00:33 -0.81844 35.29872 28074 ft 497 kts 288°
2026-05-08 00:34 -0.79707 35.23254 28060 ft 497 kts 288°
2026-05-08 00:34 -0.77653 35.16710 28057 ft 497 kts 287°
2026-05-08 00:35 -0.75671 35.10111 28042 ft 496 kts 286°
2026-05-08 00:35 -0.73714 35.03500 28022 ft 496 kts 286°
2026-05-08 00:36 -0.71756 34.96902 28021 ft 496 kts 287°
2026-05-08 00:36 -0.69791 34.90295 28012 ft 496 kts 287°
2026-05-08 00:37 -0.67824 34.83685 28001 ft 496 kts 287°
2026-05-08 00:38 -0.64874 34.73773 27998 ft 497 kts 287°
2026-05-08 00:38 -0.63887 34.70457 27983 ft 497 kts 286°
2026-05-08 00:38 -0.62902 34.67148 27985 ft 497 kts 286°
2026-05-08 00:38 -0.61917 34.63837 27969 ft 498 kts 287°
2026-05-08 00:39 -0.60931 34.60522 27961 ft 498 kts 287°
2026-05-08 00:39 -0.59948 34.57206 27962 ft 498 kts 286°
2026-05-08 00:39 -0.59006 34.53880 27962 ft 498 kts 285°
2026-05-08 00:39 -0.58091 34.50542 27948 ft 498 kts 285°
2026-05-08 00:40 -0.57186 34.47202 27947 ft 498 kts 285°
2026-05-08 00:40 -0.56278 34.43855 27945 ft 498 kts 285°
2026-05-08 00:40 -0.55369 34.40520 27939 ft 499 kts 285°
2026-05-08 00:40 -0.54453 34.37179 27944 ft 499 kts 285°
2026-05-08 00:41 -0.53533 34.33835 27945 ft 499 kts 285°
2026-05-08 00:41 -0.52680 34.30742 27938 ft 499 kts 285°
2026-05-08 00:41 -0.51758 34.27397 27934 ft 499 kts 285°
2026-05-08 00:41 -0.50838 34.24062 27938 ft 499 kts 285°
2026-05-08 00:42 -0.49917 34.20719 27933 ft 499 kts 285°
2026-05-08 00:42 -0.49005 34.17413 27930 ft 499 kts 285°
2026-05-08 00:42 -0.48073 34.14029 27927 ft 499 kts 285°
2026-05-08 00:42 -0.47154 34.10694 27925 ft 498 kts 285°
2026-05-08 00:43 -0.46247 34.07399 27926 ft 498 kts 285°
2026-05-08 00:43 -0.45318 34.04028 27925 ft 497 kts 285°
2026-05-08 00:43 -0.44413 34.00741 27925 ft 497 kts 285°
2026-05-08 00:43 -0.43493 33.97405 27922 ft 497 kts 285°
2026-05-08 00:44 -0.42541 33.94085 27925 ft 497 kts 287°
2026-05-08 00:44 -0.41475 33.90801 27927 ft 496 kts 288°
2026-05-08 00:44 -0.40358 33.87541 27921 ft 496 kts 289°
2026-05-08 00:44 -0.39231 33.84287 27918 ft 495 kts 289°
2026-05-08 00:45 -0.38116 33.81036 27915 ft 495 kts 288°
2026-05-08 00:45 -0.37017 33.77783 27919 ft 494 kts 288°
2026-05-08 00:45 -0.35930 33.74530 27921 ft 494 kts 288°
2026-05-08 00:45 -0.34849 33.71272 27921 ft 494 kts 288°
2026-05-08 00:46 -0.33773 33.68023 27924 ft 494 kts 288°
2026-05-08 00:46 -0.32693 33.64763 27920 ft 494 kts 288°
2026-05-08 00:46 -0.31613 33.61505 27920 ft 494 kts 288°
2026-05-08 00:46 -0.30530 33.58239 27922 ft 495 kts 288°
2026-05-08 00:47 -0.29448 33.54982 27917 ft 495 kts 288°
2026-05-08 00:47 -0.28363 33.51713 27918 ft 495 kts 288°
2026-05-08 00:47 -0.27280 33.48451 27919 ft 495 kts 288°
2026-05-08 00:47 -0.26202 33.45184 27918 ft 496 kts 288°
2026-05-08 00:48 -0.25161 33.41902 27919 ft 496 kts 287°
2026-05-08 00:48 -0.24141 33.38608 27918 ft 496 kts 287°
2026-05-08 00:48 -0.23129 33.35312 27918 ft 496 kts 287°
2026-05-08 00:48 -0.22120 33.32025 27918 ft 496 kts 287°
2026-05-08 00:49 -0.21106 33.28733 27917 ft 496 kts 287°
2026-05-08 00:49 -0.20086 33.25438 27912 ft 496 kts 287°
2026-05-08 00:49 -0.19063 33.22144 27912 ft 496 kts 287°
2026-05-08 00:49 -0.18042 33.18858 27912 ft 496 kts 287°
2026-05-08 00:50 -0.17017 33.15564 27913 ft 496 kts 287°
2026-05-08 00:50 -0.15994 33.12279 27912 ft 496 kts 287°
2026-05-08 00:50 -0.14969 33.08984 27913 ft 496 kts 287°
2026-05-08 00:50 -0.13945 33.05694 27917 ft 496 kts 287°
2026-05-08 00:51 -0.12924 33.02410 27914 ft 496 kts 287°
2026-05-08 00:51 -0.11912 32.99153 27913 ft 496 kts 287°
2026-05-08 00:51 -0.10875 32.95819 27913 ft 497 kts 287°
2026-05-08 00:51 -0.09850 32.92524 27911 ft 497 kts 287°
2026-05-08 00:52 -0.08839 32.89273 27913 ft 497 kts 287°
2026-05-08 00:52 -0.07813 32.85972 27908 ft 497 kts 287°
2026-05-08 00:52 -0.06787 32.82673 27908 ft 498 kts 287°
2026-05-08 00:52 -0.05760 32.79372 27912 ft 498 kts 287°
2026-05-08 00:53 -0.04734 32.76072 27914 ft 498 kts 287°
2026-05-08 00:53 -0.03705 32.72763 27913 ft 499 kts 287°
2026-05-08 00:53 -0.02675 32.69451 27908 ft 499 kts 287°
2026-05-08 00:53 -0.01644 32.66134 27910 ft 499 kts 287°
2026-05-08 00:54 -0.00614 32.62823 27913 ft 500 kts 287°
2026-05-08 00:54 0.00415 32.59513 27923 ft 499 kts 287°
2026-05-08 00:54 0.01446 32.56198 27920 ft 499 kts 287°
2026-05-08 00:54 0.02476 32.52884 27923 ft 499 kts 287°
2026-05-08 00:55 0.03507 32.49570 27926 ft 499 kts 287°
2026-05-08 00:55 0.04609 32.46289 27920 ft 499 kts 291°
2026-05-08 00:55 0.06030 32.43123 27927 ft 499 kts 297°
2026-05-08 00:55 0.07722 32.40101 27925 ft 499 kts 303°
2026-05-08 00:56 0.09674 32.37244 27933 ft 498 kts 305°
2026-05-08 00:56 0.11658 32.34410 27933 ft 498 kts 305°
2026-05-08 00:56 0.13643 32.31566 27939 ft 499 kts 304°
2026-05-08 00:56 0.15620 32.28712 27939 ft 500 kts 304°
2026-05-08 00:57 0.17587 32.25852 27944 ft 500 kts 304°
2026-05-08 00:57 0.19550 32.22985 27945 ft 501 kts 304°
2026-05-08 00:57 0.20879 32.21040 27943 ft 501 kts 304°
2026-05-08 00:57 0.22817 32.18204 27950 ft 501 kts 304°
2026-05-08 00:58 0.24784 32.15325 27948 ft 502 kts 304°
2026-05-08 00:58 0.26754 32.12445 27954 ft 502 kts 304°
2026-05-08 00:58 0.28726 32.09569 27954 ft 502 kts 304°
2026-05-08 00:58 0.30716 32.06653 27952 ft 502 kts 304°
2026-05-08 00:59 0.32657 32.03809 27955 ft 502 kts 304°
2026-05-08 00:59 0.34618 32.00932 27959 ft 500 kts 304°
2026-05-08 00:59 0.36571 31.98057 27952 ft 499 kts 304°
2026-05-08 00:59 0.38515 31.95188 27952 ft 498 kts 304°
2026-05-08 01:00 0.40458 31.92322 27954 ft 497 kts 304°
2026-05-08 01:00 0.42394 31.89465 27955 ft 497 kts 304°
2026-05-08 01:00 0.44331 31.86606 27958 ft 496 kts 304°
2026-05-08 01:00 0.46262 31.83758 27961 ft 495 kts 304°
2026-05-08 01:01 0.48194 31.80909 27963 ft 495 kts 304°
2026-05-08 01:01 0.50126 31.78061 27960 ft 495 kts 304°
2026-05-08 01:01 0.52059 31.75211 27960 ft 495 kts 304°
2026-05-08 01:01 0.53991 31.72363 27962 ft 496 kts 304°
2026-05-08 01:02 0.55926 31.69508 27962 ft 496 kts 304°
2026-05-08 01:02 0.57858 31.66659 27963 ft 496 kts 304°
2026-05-08 01:02 0.59792 31.63806 27962 ft 496 kts 304°
2026-05-08 01:02 0.61728 31.60951 27965 ft 496 kts 304°
2026-05-08 01:03 0.63666 31.58092 27967 ft 496 kts 304°
2026-05-08 01:03 0.65602 31.55237 27966 ft 497 kts 304°
2026-05-08 01:03 0.67537 31.52387 27963 ft 497 kts 304°
2026-05-08 01:03 0.69489 31.49526 27964 ft 497 kts 304°
2026-05-08 01:04 0.71438 31.46674 27967 ft 498 kts 304°
2026-05-08 01:04 0.73391 31.43816 27968 ft 498 kts 304°
2026-05-08 01:04 0.75341 31.40961 27972 ft 498 kts 304°
2026-05-08 01:04 0.77296 31.38098 27971 ft 498 kts 304°
2026-05-08 01:05 0.79249 31.35235 27960 ft 499 kts 304°
2026-05-08 01:05 0.81203 31.32371 27959 ft 499 kts 304°
2026-05-08 01:05 0.83153 31.29512 27965 ft 499 kts 304°
2026-05-08 01:05 0.85106 31.26648 27966 ft 499 kts 304°
2026-05-08 01:06 0.87062 31.23781 27967 ft 499 kts 304°
2026-05-08 01:06 0.89015 31.20918 27969 ft 499 kts 304°
2026-05-08 01:06 0.90968 31.18054 27970 ft 498 kts 304°
2026-05-08 01:06 0.92918 31.15195 27961 ft 498 kts 304°
2026-05-08 01:07 0.94868 31.12336 27961 ft 498 kts 304°
2026-05-08 01:07 0.96818 31.09477 27962 ft 498 kts 304°
2026-05-08 01:07 0.98744 31.06653 27959 ft 498 kts 304°
2026-05-08 01:07 1.00691 31.03798 27958 ft 498 kts 304°
2026-05-08 01:08 1.02665 31.00903 27956 ft 498 kts 304°
2026-05-08 01:08 1.04590 30.98080 27959 ft 498 kts 304°
2026-05-08 01:08 1.06538 30.95223 27937 ft 498 kts 304°
2026-05-08 01:08 1.08489 30.92363 27937 ft 498 kts 304°
2026-05-08 01:09 1.10437 30.89505 27940 ft 498 kts 304°
2026-05-08 01:09 1.12386 30.86647 27937 ft 498 kts 304°
2026-05-08 01:09 1.14333 30.83792 27937 ft 498 kts 304°
2026-05-08 01:09 1.16283 30.80931 27938 ft 498 kts 304°
2026-05-08 01:10 1.18232 30.78073 27923 ft 498 kts 304°
2026-05-08 01:10 1.20182 30.75212 27923 ft 498 kts 304°
2026-05-08 01:10 1.22127 30.72359 27913 ft 498 kts 304°
2026-05-08 01:10 1.24075 30.69500 27911 ft 498 kts 304°
2026-05-08 01:11 1.26026 30.66639 27909 ft 498 kts 304°
2026-05-08 01:11 1.27977 30.63789 27911 ft 498 kts 304°
2026-05-08 01:11 1.29954 30.60951 27906 ft 498 kts 304°
2026-05-08 01:11 1.31945 30.58117 27905 ft 498 kts 304°
2026-05-08 01:12 1.33933 30.55292 27902 ft 498 kts 304°
2026-05-08 01:12 1.35923 30.52460 27902 ft 498 kts 304°
2026-05-08 01:12 1.37915 30.49620 27913 ft 498 kts 304°
2026-05-08 01:12 1.39894 30.46793 27913 ft 498 kts 304°
2026-05-08 01:13 1.41882 30.43951 27911 ft 498 kts 304°
2026-05-08 01:13 1.43867 30.41112 27911 ft 499 kts 304°
2026-05-08 01:13 1.45859 30.38263 28049 ft 501 kts 304°
2026-05-08 01:13 1.47856 30.35407 28328 ft 502 kts 304°
2026-05-08 01:14 1.49853 30.32551 28645 ft 502 kts 304°
2026-05-08 01:14 1.51853 30.29690 28852 ft 504 kts 304°
2026-05-08 01:14 1.53871 30.26805 28873 ft 507 kts 304°
2026-05-08 01:15 1.57644 30.20882 28936 ft 505 kts 296°
2026-05-08 01:15 1.59141 30.17695 29038 ft 508 kts 294°
2026-05-08 01:15 1.60602 30.14475 29243 ft 510 kts 294°
2026-05-08 01:15 1.62069 30.11255 29540 ft 509 kts 294°
2026-05-08 01:16 1.63544 30.08047 29929 ft 506 kts 294°
2026-05-08 01:16 1.65019 30.04865 30273 ft 504 kts 294°
2026-05-08 01:16 1.66502 30.01686 30553 ft 503 kts 294°
2026-05-08 01:16 1.67979 29.98526 30810 ft 503 kts 294°
2026-05-08 01:17 1.69461 29.95355 31068 ft 503 kts 294°
2026-05-08 01:17 1.70940 29.92190 31330 ft 502 kts 294°
2026-05-08 01:17 1.72415 29.89031 31610 ft 501 kts 294°
2026-05-08 01:17 1.73889 29.85870 31883 ft 501 kts 294°
2026-05-08 01:18 1.75341 29.82759 32172 ft 500 kts 294°
2026-05-08 01:18 1.76805 29.79622 32474 ft 498 kts 294°
2026-05-08 01:18 1.78289 29.76498 32792 ft 496 kts 295°
2026-05-08 01:19 1.81354 29.70296 32896 ft 499 kts 296°
2026-05-08 01:19 1.84435 29.64089 32943 ft 498 kts 296°
2026-05-08 01:20 1.87494 29.57880 32949 ft 497 kts 295°
2026-05-08 01:20 1.90535 29.51689 32948 ft 497 kts 296°
2026-05-08 01:21 1.93566 29.45484 32948 ft 496 kts 295°
2026-05-08 01:21 1.96514 29.39245 32945 ft 496 kts 295°
2026-05-08 01:22 1.99442 29.32999 32940 ft 496 kts 295°
2026-05-08 01:22 2.02379 29.26761 32946 ft 496 kts 295°
2026-05-08 01:23 2.05327 29.20516 32940 ft 497 kts 295°
2026-05-08 01:23 2.08277 29.14271 32944 ft 497 kts 295°
2026-05-08 01:24 2.11233 29.08012 32940 ft 498 kts 295°
2026-05-08 01:24 2.14189 29.01750 32939 ft 499 kts 295°
2026-05-08 01:25 2.17148 28.95481 32935 ft 499 kts 295°
2026-05-08 01:25 2.20119 28.89187 32933 ft 501 kts 295°
2026-05-08 01:26 2.23099 28.82871 32938 ft 503 kts 295°
2026-05-08 01:26 2.26072 28.76570 32939 ft 506 kts 295°
2026-05-08 01:27 2.29077 28.70201 32937 ft 507 kts 295°
2026-05-08 01:27 2.32090 28.63815 32929 ft 508 kts 294°
2026-05-08 01:28 2.35104 28.57424 32928 ft 508 kts 294°
2026-05-08 01:28 2.38113 28.51043 32931 ft 507 kts 294°
2026-05-08 01:29 2.41117 28.44671 32922 ft 506 kts 294°
2026-05-08 01:29 2.44114 28.38314 32920 ft 505 kts 294°
2026-05-08 01:30 2.47102 28.31975 32924 ft 503 kts 294°
2026-05-08 01:30 2.50081 28.25650 32926 ft 502 kts 294°
2026-05-08 01:31 2.53059 28.19346 32921 ft 501 kts 294°
2026-05-08 01:31 2.56065 28.13058 32921 ft 501 kts 295°
2026-05-08 01:32 2.59072 28.06780 32922 ft 500 kts 295°
2026-05-08 01:32 2.62071 28.00504 32921 ft 501 kts 295°
2026-05-08 01:33 2.65071 27.94220 32918 ft 501 kts 295°
2026-05-08 01:33 2.68074 27.87926 32922 ft 501 kts 295°
2026-05-08 01:34 2.71080 27.81627 32923 ft 502 kts 295°
2026-05-08 01:34 2.74086 27.75327 32918 ft 502 kts 295°
2026-05-08 01:35 2.77075 27.69061 32921 ft 502 kts 295°
2026-05-08 01:35 2.80103 27.62722 32920 ft 502 kts 295°
2026-05-08 01:36 2.83706 27.56794 32918 ft 503 kts 306°
2026-05-08 01:36 2.87941 27.51232 32920 ft 503 kts 307°
2026-05-08 01:37 2.92174 27.45667 32921 ft 502 kts 307°
2026-05-08 01:37 2.96375 27.40083 32918 ft 502 kts 306°
2026-05-08 01:38 3.00552 27.34502 32909 ft 500 kts 306°
2026-05-08 01:38 3.04715 27.28933 32911 ft 499 kts 306°
2026-05-08 01:39 3.08874 27.23373 32909 ft 499 kts 306°
2026-05-08 01:39 3.13028 27.17820 32910 ft 498 kts 306°
2026-05-08 01:40 3.17175 27.12276 32917 ft 497 kts 306°
2026-05-08 01:40 3.21320 27.06735 32908 ft 497 kts 306°
2026-05-08 01:41 3.25461 27.01196 32907 ft 497 kts 306°
2026-05-08 01:41 3.29602 26.95658 32913 ft 496 kts 306°
2026-05-08 01:42 3.33737 26.90127 32913 ft 496 kts 306°
2026-05-08 01:42 3.37875 26.84591 32908 ft 497 kts 306°
2026-05-08 01:43 3.42010 26.79058 32912 ft 497 kts 306°
2026-05-08 01:43 3.46147 26.73521 32913 ft 497 kts 306°
2026-05-08 01:44 3.50286 26.67980 32909 ft 497 kts 306°
2026-05-08 01:44 3.53721 26.63382 32910 ft 497 kts 306°
2026-05-08 01:45 3.57858 26.57843 32910 ft 497 kts 306°
2026-05-08 01:45 3.61995 26.52303 32911 ft 497 kts 306°
2026-05-08 01:46 3.66131 26.46763 32909 ft 497 kts 306°
2026-05-08 01:46 3.70266 26.41224 32913 ft 496 kts 306°
2026-05-08 01:47 3.74400 26.35685 32910 ft 496 kts 306°
2026-05-08 01:47 3.78533 26.30145 32908 ft 496 kts 306°
2026-05-08 01:48 3.84725 26.21846 32913 ft 496 kts 306°
2026-05-08 01:48 3.88854 26.16309 32907 ft 496 kts 306°
2026-05-08 01:49 3.92981 26.10775 32908 ft 495 kts 306°
2026-05-08 01:49 3.97103 26.05246 32906 ft 495 kts 306°
2026-05-08 01:50 4.01196 25.99756 32907 ft 495 kts 306°
2026-05-08 01:50 4.05342 25.94193 32907 ft 495 kts 306°
2026-05-08 01:51 4.09456 25.88672 32910 ft 495 kts 306°
2026-05-08 01:51 4.13567 25.83153 32911 ft 494 kts 306°
2026-05-08 01:52 4.17678 25.77634 32909 ft 494 kts 306°
2026-05-08 01:52 4.21781 25.72124 32906 ft 493 kts 306°
2026-05-08 01:53 4.25855 25.66654 32903 ft 493 kts 306°
2026-05-08 01:53 4.29952 25.61150 32906 ft 493 kts 306°
2026-05-08 01:54 4.34047 25.55647 32907 ft 492 kts 306°
2026-05-08 01:54 4.38139 25.50147 32906 ft 492 kts 306°
2026-05-08 01:55 4.42228 25.44651 32907 ft 492 kts 306°
2026-05-08 01:55 4.46314 25.39157 32907 ft 492 kts 306°
2026-05-08 01:56 4.50402 25.33659 32908 ft 492 kts 306°
2026-05-08 01:56 4.54490 25.28160 32908 ft 492 kts 306°
2026-05-08 01:57 4.58571 25.22668 32906 ft 492 kts 306°
2026-05-08 01:57 4.62656 25.17172 32906 ft 492 kts 306°
2026-05-08 01:58 4.66740 25.11679 32906 ft 492 kts 306°
2026-05-08 01:58 4.70826 25.06180 32904 ft 492 kts 306°
2026-05-08 01:59 4.74909 25.00682 32906 ft 492 kts 306°
2026-05-08 01:59 4.78991 24.95186 32905 ft 491 kts 306°
2026-05-08 02:00 4.83074 24.89684 32906 ft 491 kts 306°
2026-05-08 02:00 4.87156 24.84184 32904 ft 492 kts 306°
2026-05-08 02:01 4.91241 24.78678 32907 ft 492 kts 306°
2026-05-08 02:01 4.95330 24.73168 32905 ft 493 kts 306°
2026-05-08 02:02 4.99421 24.67657 32903 ft 493 kts 306°
2026-05-08 02:02 5.03516 24.62138 32909 ft 493 kts 306°
2026-05-08 02:03 5.07613 24.56613 32908 ft 494 kts 306°
2026-05-08 02:03 5.11707 24.51090 32909 ft 494 kts 306°
2026-05-08 02:04 5.15804 24.45563 32906 ft 494 kts 306°
2026-05-08 02:04 5.19877 24.40070 32907 ft 494 kts 306°
2026-05-08 02:05 5.23995 24.34514 32910 ft 493 kts 306°
2026-05-08 02:05 5.28055 24.29035 32904 ft 492 kts 306°
2026-05-08 02:06 5.32135 24.23527 32908 ft 491 kts 306°
2026-05-08 02:06 5.36206 24.18030 32908 ft 490 kts 306°
2026-05-08 02:07 5.40274 24.12533 32907 ft 490 kts 306°
2026-05-08 02:07 5.44334 24.07047 32907 ft 489 kts 306°
2026-05-08 02:08 5.48392 24.01562 32909 ft 489 kts 307°
2026-05-08 02:08 5.52445 23.96083 32906 ft 489 kts 307°
2026-05-08 02:09 5.56493 23.90608 32909 ft 489 kts 307°
2026-05-08 02:09 5.60545 23.85127 32910 ft 488 kts 307°
2026-05-08 02:10 5.64589 23.79654 32906 ft 488 kts 307°
2026-05-08 02:10 5.68652 23.74187 32907 ft 489 kts 307°
2026-05-08 02:11 5.72769 23.68753 32907 ft 489 kts 307°
2026-05-08 02:11 5.76894 23.63321 32908 ft 489 kts 307°
2026-05-08 02:12 5.81009 23.57884 32911 ft 489 kts 307°
2026-05-08 02:12 5.85122 23.52441 32910 ft 489 kts 307°
2026-05-08 02:13 5.89234 23.46995 32907 ft 489 kts 307°
2026-05-08 02:13 5.93350 23.41543 32906 ft 490 kts 307°
2026-05-08 02:14 5.97464 23.36092 32905 ft 490 kts 307°
2026-05-08 02:14 6.01588 23.30627 32907 ft 491 kts 307°
2026-05-08 02:15 6.05710 23.25163 32906 ft 491 kts 307°
2026-05-08 02:15 6.09837 23.19692 32907 ft 491 kts 307°
2026-05-08 02:16 6.13963 23.14219 32907 ft 491 kts 307°
2026-05-08 02:16 6.18090 23.08743 32909 ft 491 kts 307°
2026-05-08 02:17 6.22219 23.03265 32907 ft 491 kts 307°
2026-05-08 02:17 6.26339 22.97796 32906 ft 491 kts 307°
2026-05-08 02:18 6.30458 22.92326 32909 ft 491 kts 307°
2026-05-08 02:18 6.34570 22.86865 32917 ft 490 kts 308°
2026-05-08 02:19 6.38678 22.81407 32905 ft 488 kts 308°
2026-05-08 02:19 6.42771 22.75967 32907 ft 487 kts 308°
2026-05-08 02:20 6.46855 22.70537 32909 ft 487 kts 308°
2026-05-08 02:20 6.50937 22.65109 32910 ft 486 kts 308°
2026-05-08 02:21 6.54986 22.59723 32913 ft 486 kts 308°
2026-05-08 02:21 6.59066 22.54293 32907 ft 487 kts 308°
2026-05-08 02:22 6.63147 22.48862 32910 ft 487 kts 308°
2026-05-08 02:22 6.67234 22.43419 32904 ft 488 kts 309°
2026-05-08 02:23 6.71325 22.37971 32911 ft 488 kts 309°
2026-05-08 02:23 6.75420 22.32515 32910 ft 489 kts 309°
2026-05-08 02:24 6.79518 22.27052 32909 ft 489 kts 309°
2026-05-08 02:24 6.83623 22.21579 32908 ft 490 kts 309°
2026-05-08 02:25 6.87730 22.16101 32908 ft 490 kts 309°
2026-05-08 02:25 6.91831 22.10628 32907 ft 490 kts 309°
2026-05-08 02:26 6.95944 22.05145 32910 ft 490 kts 309°
2026-05-08 02:26 7.00051 21.99670 32911 ft 490 kts 309°
2026-05-08 02:27 7.04165 21.94181 32914 ft 490 kts 309°
2026-05-08 02:27 7.08269 21.88704 32909 ft 490 kts 309°
2026-05-08 02:28 7.12375 21.83221 32911 ft 490 kts 309°
2026-05-08 02:28 7.16476 21.77743 32905 ft 490 kts 309°
2026-05-08 02:29 7.20575 21.72266 32911 ft 489 kts 309°
2026-05-08 02:29 7.23978 21.67715 32907 ft 489 kts 309°
2026-05-08 02:30 7.28065 21.62243 32908 ft 489 kts 309°
2026-05-08 02:30 7.32153 21.56766 32907 ft 489 kts 309°
2026-05-08 02:31 7.36235 21.51298 32908 ft 489 kts 309°
2026-05-08 02:31 7.40320 21.45823 32905 ft 489 kts 309°
2026-05-08 02:32 7.44402 21.40349 32910 ft 489 kts 309°
2026-05-08 02:32 7.48487 21.34870 32908 ft 489 kts 309°
2026-05-08 02:33 7.52568 21.29394 32909 ft 489 kts 309°
2026-05-08 02:33 7.56646 21.23920 32908 ft 489 kts 309°
2026-05-08 02:34 7.60724 21.18445 32907 ft 488 kts 309°
2026-05-08 02:34 7.64805 21.12964 32905 ft 488 kts 309°
2026-05-08 02:35 7.68853 21.07525 32904 ft 488 kts 309°
2026-05-08 02:35 7.72929 21.02045 32904 ft 488 kts 309°
2026-05-08 02:36 7.77005 20.96564 32900 ft 488 kts 309°
2026-05-08 02:36 7.81081 20.91082 32900 ft 488 kts 309°
2026-05-08 02:37 7.85151 20.85603 32899 ft 488 kts 309°
2026-05-08 02:37 7.89220 20.80126 32892 ft 488 kts 309°
2026-05-08 02:38 7.93291 20.74643 32896 ft 488 kts 309°
2026-05-08 02:38 7.97357 20.69165 32892 ft 488 kts 309°
2026-05-08 02:39 8.01436 20.63697 32890 ft 488 kts 310°
2026-05-08 02:39 8.05621 20.58318 32884 ft 487 kts 311°
2026-05-08 02:40 8.09837 20.52956 32886 ft 488 kts 311°
2026-05-08 02:40 8.14041 20.47579 32883 ft 488 kts 310°
2026-05-08 02:41 8.18232 20.42194 32880 ft 488 kts 310°
2026-05-08 02:41 8.22421 20.36806 32880 ft 488 kts 310°
2026-05-08 02:42 8.26616 20.31408 32883 ft 488 kts 310°
2026-05-08 02:42 8.30805 20.26019 32879 ft 488 kts 310°
2026-05-08 02:43 8.34997 20.20622 32883 ft 488 kts 310°
2026-05-08 02:43 8.39183 20.15231 32879 ft 488 kts 310°
2026-05-08 02:44 8.43372 20.09835 32873 ft 488 kts 310°
2026-05-08 02:44 8.47533 20.04472 32876 ft 488 kts 310°
2026-05-08 02:45 8.51725 19.99068 32880 ft 489 kts 310°
2026-05-08 02:45 8.55915 19.93663 32871 ft 489 kts 311°
2026-05-08 02:46 8.60108 19.88252 32869 ft 489 kts 311°
2026-05-08 02:46 8.64298 19.82844 32868 ft 488 kts 311°
2026-05-08 02:47 8.68480 19.77442 32857 ft 488 kts 311°
2026-05-08 02:47 8.72658 19.72045 32864 ft 488 kts 311°
2026-05-08 02:48 8.76841 19.66645 32862 ft 488 kts 311°
2026-05-08 02:48 8.81024 19.61247 32864 ft 488 kts 311°
2026-05-08 02:49 8.85206 19.55846 32866 ft 488 kts 311°
2026-05-08 02:49 8.89388 19.50441 32856 ft 488 kts 311°
2026-05-08 02:50 8.93567 19.45037 32853 ft 488 kts 311°
2026-05-08 02:50 8.97721 19.39663 32859 ft 488 kts 311°
2026-05-08 02:51 9.01901 19.34255 32851 ft 488 kts 311°
2026-05-08 02:51 9.06082 19.28843 32848 ft 488 kts 311°
2026-05-08 02:52 9.10258 19.23434 32852 ft 488 kts 311°
2026-05-08 02:52 9.14435 19.18021 32850 ft 488 kts 311°
2026-05-08 02:53 9.18612 19.12607 32849 ft 488 kts 311°
2026-05-08 02:53 9.22788 19.07191 32851 ft 488 kts 311°
2026-05-08 02:54 9.26961 19.01778 32854 ft 488 kts 311°
2026-05-08 02:54 9.31138 18.96356 32846 ft 488 kts 311°
2026-05-08 02:55 9.37402 18.88221 32846 ft 488 kts 311°
2026-05-08 02:56 9.41566 18.82809 32842 ft 487 kts 311°
2026-05-08 02:56 9.45730 18.77395 32840 ft 487 kts 311°
2026-05-08 02:57 9.49892 18.71982 32843 ft 487 kts 311°
2026-05-08 02:57 9.54047 18.66568 32836 ft 487 kts 311°
2026-05-08 02:58 9.58199 18.61150 32840 ft 487 kts 311°
2026-05-08 02:58 9.62349 18.55732 32836 ft 487 kts 311°
2026-05-08 02:59 9.66506 18.50304 32839 ft 487 kts 311°
2026-05-08 02:59 9.70655 18.44883 32844 ft 487 kts 311°
2026-05-08 03:00 9.74771 18.39503 32854 ft 486 kts 310°
2026-05-08 03:00 9.78917 18.34081 32840 ft 486 kts 310°
2026-05-08 03:01 9.83054 18.28669 32841 ft 486 kts 310°
2026-05-08 03:01 9.87194 18.23250 32836 ft 486 kts 310°
2026-05-08 03:02 9.91332 18.17832 32840 ft 486 kts 310°
2026-05-08 03:02 9.95464 18.12419 32834 ft 486 kts 310°
2026-05-08 03:03 9.99602 18.06995 32836 ft 486 kts 310°
2026-05-08 03:03 10.03734 18.01577 32839 ft 486 kts 310°
2026-05-08 03:04 10.07871 17.96150 32846 ft 486 kts 311°
2026-05-08 03:04 10.12000 17.90731 32840 ft 485 kts 311°
2026-05-08 03:05 10.16125 17.85314 32837 ft 485 kts 311°
2026-05-08 03:05 10.20246 17.79900 32839 ft 484 kts 311°
2026-05-08 03:06 10.24356 17.74498 32837 ft 483 kts 311°
2026-05-08 03:06 10.28461 17.69100 32832 ft 483 kts 310°
2026-05-08 03:07 10.32564 17.63701 32834 ft 483 kts 310°
2026-05-08 03:07 10.36668 17.58300 32829 ft 483 kts 310°
2026-05-08 03:08 10.40768 17.52900 32838 ft 483 kts 310°
2026-05-08 03:08 10.44869 17.47498 32840 ft 483 kts 310°
2026-05-08 03:09 10.48969 17.42093 32834 ft 483 kts 310°
2026-05-08 03:09 10.53074 17.36678 32837 ft 483 kts 310°
2026-05-08 03:10 10.57175 17.31267 32837 ft 483 kts 310°
2026-05-08 03:10 10.61280 17.25847 32837 ft 484 kts 310°
2026-05-08 03:11 10.65380 17.20432 32838 ft 484 kts 310°
2026-05-08 03:11 10.69482 17.15009 32836 ft 484 kts 310°
2026-05-08 03:12 10.73521 17.09525 32829 ft 485 kts 308°
2026-05-08 03:12 10.77362 17.03887 32836 ft 485 kts 308°
2026-05-08 03:13 10.81201 16.98242 32837 ft 485 kts 308°
2026-05-08 03:13 10.85067 16.92625 32838 ft 485 kts 308°
2026-05-08 03:14 10.88910 16.87058 32836 ft 484 kts 308°
2026-05-08 03:14 10.92774 16.81454 32837 ft 483 kts 308°
2026-05-08 03:15 10.96633 16.75853 32832 ft 483 kts 308°
2026-05-08 03:15 11.00489 16.70259 32833 ft 483 kts 308°
2026-05-08 03:16 11.04342 16.64665 32831 ft 482 kts 308°
2026-05-08 03:16 11.08189 16.59075 32831 ft 482 kts 308°
2026-05-08 03:17 11.12037 16.53480 32836 ft 482 kts 308°
2026-05-08 03:17 11.15883 16.47887 32831 ft 482 kts 308°
2026-05-08 03:18 11.19728 16.42290 32830 ft 482 kts 308°
2026-05-08 03:18 11.22952 16.37595 32840 ft 482 kts 308°
2026-05-08 03:19 11.26799 16.31990 32815 ft 482 kts 308°
2026-05-08 03:19 11.30638 16.26394 32834 ft 482 kts 308°
2026-05-08 03:20 11.34474 16.20799 32830 ft 482 kts 308°
2026-05-08 03:20 11.38312 16.15197 32826 ft 482 kts 308°
2026-05-08 03:21 11.42144 16.09603 32824 ft 482 kts 308°
2026-05-08 03:21 11.45977 16.04004 32825 ft 481 kts 308°
2026-05-08 03:22 11.49808 15.98403 32825 ft 482 kts 308°
2026-05-08 03:22 11.53640 15.92799 32830 ft 482 kts 308°
2026-05-08 03:23 11.57477 15.87185 32826 ft 482 kts 308°
2026-05-08 03:23 11.61308 15.81575 32829 ft 483 kts 308°
2026-05-08 03:24 11.65144 15.75956 32820 ft 483 kts 308°
2026-05-08 03:24 11.68980 15.70332 32822 ft 483 kts 308°
2026-05-08 03:25 11.72817 15.64705 32826 ft 483 kts 308°
2026-05-08 03:25 11.76651 15.59080 32821 ft 483 kts 308°
2026-05-08 03:26 11.80484 15.53452 32824 ft 483 kts 308°
2026-05-08 03:26 11.84323 15.47811 32822 ft 484 kts 308°
2026-05-08 03:27 11.88137 15.42205 32826 ft 484 kts 308°
2026-05-08 03:27 11.91976 15.36557 32821 ft 484 kts 308°
2026-05-08 03:28 11.95812 15.30912 32815 ft 484 kts 308°
2026-05-08 03:28 11.99654 15.25255 32812 ft 484 kts 307°
2026-05-08 03:29 12.03493 15.19597 32812 ft 484 kts 307°
2026-05-08 03:29 12.07328 15.13942 32804 ft 484 kts 307°
2026-05-08 03:30 12.13338 15.05672 32793 ft 480 kts 318°
2026-05-08 03:30 12.18518 15.01463 32805 ft 475 kts 331°
2026-05-08 03:31 12.24363 14.98349 32818 ft 474 kts 335°
2026-05-08 03:32 12.33201 14.93800 32820 ft 474 kts 335°
2026-05-08 03:32 12.39085 14.90723 32821 ft 475 kts 334°
2026-05-08 03:33 12.44963 14.87629 32820 ft 475 kts 334°
2026-05-08 03:33 12.50838 14.84532 32820 ft 475 kts 334°
2026-05-08 03:34 12.56720 14.81431 32821 ft 475 kts 334°
2026-05-08 03:34 12.62602 14.78329 32818 ft 476 kts 334°
2026-05-08 03:35 12.68483 14.75226 32816 ft 475 kts 334°
2026-05-08 03:35 12.74367 14.72121 32812 ft 475 kts 334°
2026-05-08 03:36 12.80247 14.69016 32812 ft 475 kts 334°
2026-05-08 03:36 12.86120 14.65913 32814 ft 475 kts 334°
2026-05-08 03:37 12.92001 14.62803 32818 ft 475 kts 334°
2026-05-08 03:37 12.97873 14.59697 32810 ft 475 kts 334°
2026-05-08 03:38 13.03746 14.56589 32814 ft 475 kts 334°
2026-05-08 03:38 13.09629 14.53475 32812 ft 475 kts 333°
2026-05-08 03:39 13.15499 14.50364 32808 ft 475 kts 333°
2026-05-08 03:39 13.21364 14.47255 32814 ft 474 kts 333°
2026-05-08 03:40 13.27220 14.44150 32821 ft 474 kts 333°
2026-05-08 03:40 13.33078 14.41041 32818 ft 474 kts 333°
2026-05-08 03:41 13.38928 14.37935 32818 ft 473 kts 333°
2026-05-08 03:41 13.44774 14.34829 32826 ft 473 kts 333°
2026-05-08 03:42 13.50582 14.31742 32824 ft 473 kts 333°
2026-05-08 03:42 13.56420 14.28637 32821 ft 472 kts 333°
2026-05-08 03:43 13.62257 14.25531 32822 ft 472 kts 333°
2026-05-08 03:43 13.68086 14.22427 32825 ft 472 kts 333°
2026-05-08 03:44 13.73919 14.19319 32828 ft 471 kts 333°
2026-05-08 03:44 13.79740 14.16216 32827 ft 471 kts 333°
2026-05-08 03:45 13.85556 14.13114 32830 ft 471 kts 333°
2026-05-08 03:45 13.91369 14.10012 32830 ft 471 kts 333°
2026-05-08 03:46 13.97190 14.06907 32833 ft 471 kts 333°
2026-05-08 03:46 14.02999 14.03808 32832 ft 471 kts 333°
2026-05-08 03:47 14.08814 14.00703 32836 ft 471 kts 333°
2026-05-08 03:47 14.14628 13.97596 32838 ft 471 kts 333°
2026-05-08 03:48 14.20440 13.94488 32837 ft 471 kts 333°
2026-05-08 03:48 14.26257 13.91376 32842 ft 471 kts 333°
2026-05-08 03:49 14.32069 13.88264 32843 ft 471 kts 333°
2026-05-08 03:49 14.37890 13.85146 32838 ft 471 kts 333°
2026-05-08 03:50 14.43707 13.82028 32840 ft 471 kts 333°
2026-05-08 03:50 14.49516 13.78911 32842 ft 471 kts 333°
2026-05-08 03:51 14.55333 13.75787 32850 ft 471 kts 333°
2026-05-08 03:51 14.61139 13.72668 32849 ft 471 kts 333°
2026-05-08 03:52 14.66946 13.69546 32853 ft 470 kts 333°
2026-05-08 03:52 14.72752 13.66422 32851 ft 470 kts 333°
2026-05-08 03:53 14.78556 13.63298 32855 ft 470 kts 333°
2026-05-08 03:53 14.84359 13.60172 32855 ft 470 kts 333°
2026-05-08 03:54 14.90163 13.57044 32857 ft 470 kts 332°
2026-05-08 03:54 14.95957 13.53920 32853 ft 470 kts 332°
2026-05-08 03:55 15.01746 13.50796 32855 ft 469 kts 332°
2026-05-08 03:55 15.07532 13.47672 32854 ft 469 kts 332°
2026-05-08 03:56 15.13313 13.44548 32855 ft 469 kts 332°
2026-05-08 03:56 15.19094 13.41423 32854 ft 469 kts 332°
2026-05-08 03:57 15.24868 13.38300 32856 ft 468 kts 332°
2026-05-08 03:57 15.30643 13.35174 32854 ft 468 kts 332°
2026-05-08 03:58 15.36374 13.32070 32855 ft 468 kts 332°
2026-05-08 03:58 15.42143 13.28943 32858 ft 468 kts 332°
2026-05-08 03:59 15.47902 13.25820 32858 ft 467 kts 332°
2026-05-08 03:59 15.53666 13.22692 32858 ft 467 kts 332°
2026-05-08 04:00 15.59426 13.19565 32867 ft 467 kts 332°
2026-05-08 04:00 15.65188 13.16434 32867 ft 467 kts 332°
2026-05-08 04:01 15.70941 13.13306 32864 ft 467 kts 332°
2026-05-08 04:01 15.76700 13.10172 32867 ft 467 kts 332°
2026-05-08 04:02 15.82457 13.07038 32869 ft 467 kts 332°
2026-05-08 04:02 15.87238 13.04433 32868 ft 467 kts 332°
2026-05-08 04:03 15.92998 13.01293 32868 ft 467 kts 332°
2026-05-08 04:03 16.01220 12.95889 32873 ft 467 kts 321°
2026-05-08 04:04 16.05958 12.91283 32872 ft 467 kts 316°
2026-05-08 04:04 16.10596 12.86546 32878 ft 467 kts 316°
2026-05-08 04:05 16.15242 12.81823 32877 ft 467 kts 316°
2026-05-08 04:05 16.19905 12.77104 32873 ft 468 kts 316°
2026-05-08 04:06 16.24569 12.72388 32881 ft 468 kts 316°
2026-05-08 04:06 16.29235 12.67667 32879 ft 468 kts 316°
2026-05-08 04:07 16.33902 12.62942 32881 ft 468 kts 316°
2026-05-08 04:07 16.38567 12.58214 32876 ft 468 kts 316°
2026-05-08 04:08 16.43219 12.53496 32880 ft 467 kts 316°
2026-05-08 04:08 16.47878 12.48768 32879 ft 467 kts 316°
2026-05-08 04:09 16.52504 12.44069 32877 ft 467 kts 316°
2026-05-08 04:09 16.57153 12.39344 32883 ft 467 kts 315°
2026-05-08 04:10 16.61797 12.34621 32879 ft 466 kts 315°
2026-05-08 04:10 16.66438 12.29897 32876 ft 466 kts 315°
2026-05-08 04:11 16.71071 12.25178 32886 ft 465 kts 315°
2026-05-08 04:11 16.75690 12.20470 32876 ft 464 kts 315°
2026-05-08 04:12 16.80299 12.15768 32876 ft 462 kts 315°
2026-05-08 04:12 16.84893 12.11078 32875 ft 462 kts 315°
2026-05-08 04:13 16.89481 12.06390 32884 ft 461 kts 315°
2026-05-08 04:13 16.94068 12.01702 32879 ft 461 kts 315°
2026-05-08 04:14 16.98649 11.97016 32883 ft 462 kts 315°
2026-05-08 04:14 17.03238 11.92317 32881 ft 462 kts 315°
2026-05-08 04:15 17.07824 11.87617 32884 ft 462 kts 315°
2026-05-08 04:15 17.12415 11.82908 32872 ft 462 kts 315°
2026-05-08 04:16 17.17000 11.78202 32875 ft 462 kts 315°
2026-05-08 04:16 17.21583 11.73494 32879 ft 462 kts 315°
2026-05-08 04:17 17.26166 11.68782 32870 ft 462 kts 315°
2026-05-08 04:17 17.30745 11.64071 32876 ft 462 kts 315°
2026-05-08 04:18 17.35323 11.59357 32873 ft 462 kts 315°
2026-05-08 04:18 17.39875 11.54668 32875 ft 462 kts 315°
2026-05-08 04:19 17.44855 11.50418 32872 ft 463 kts 324°
2026-05-08 04:19 17.50447 11.47035 32875 ft 466 kts 333°
2026-05-08 04:20 17.56355 11.44241 32872 ft 466 kts 334°
2026-05-08 04:20 17.62285 11.41471 32872 ft 467 kts 333°
2026-05-08 04:21 17.68205 11.38674 32872 ft 467 kts 333°
2026-05-08 04:21 17.74112 11.35861 32871 ft 467 kts 333°
2026-05-08 04:22 17.80025 11.33039 32875 ft 467 kts 333°
2026-05-08 04:22 17.85935 11.30216 32878 ft 467 kts 333°
2026-05-08 04:23 17.91841 11.27394 32873 ft 467 kts 333°
2026-05-08 04:23 17.97754 11.24567 32873 ft 467 kts 333°
2026-05-08 04:24 18.03662 11.21740 32874 ft 466 kts 333°
2026-05-08 04:24 18.09566 11.18913 32877 ft 466 kts 333°
2026-05-08 04:25 18.15469 11.16085 32871 ft 467 kts 333°
2026-05-08 04:25 18.21384 11.13248 32875 ft 467 kts 333°
2026-05-08 04:26 18.27290 11.10413 32874 ft 467 kts 333°
2026-05-08 04:26 18.33211 11.07570 32874 ft 467 kts 333°
2026-05-08 04:27 18.39126 11.04727 32875 ft 468 kts 333°
2026-05-08 04:27 18.45046 11.01879 32875 ft 468 kts 333°
2026-05-08 04:28 18.50963 10.99030 32877 ft 468 kts 332°
2026-05-08 04:28 18.56889 10.96172 32877 ft 468 kts 332°
2026-05-08 04:29 18.62769 10.93333 32877 ft 468 kts 332°
2026-05-08 04:29 18.68684 10.90474 32877 ft 468 kts 332°
2026-05-08 04:30 18.74601 10.87613 32876 ft 468 kts 332°
2026-05-08 04:30 18.80513 10.84751 32882 ft 467 kts 332°
2026-05-08 04:31 18.86422 10.81889 32876 ft 468 kts 332°
2026-05-08 04:31 18.92337 10.79022 32878 ft 467 kts 332°
2026-05-08 04:32 18.98250 10.76153 32874 ft 467 kts 332°
2026-05-08 04:32 19.04160 10.73284 32875 ft 467 kts 332°
2026-05-08 04:33 19.10072 10.70412 32871 ft 468 kts 332°
2026-05-08 04:33 19.15977 10.67540 32878 ft 468 kts 332°
2026-05-08 04:34 19.21893 10.64661 32870 ft 468 kts 332°
2026-05-08 04:34 19.27807 10.61781 32869 ft 468 kts 332°
2026-05-08 04:35 19.33720 10.58899 32869 ft 468 kts 332°
2026-05-08 04:35 19.39633 10.56014 32870 ft 468 kts 332°
2026-05-08 04:36 19.45550 10.53125 32869 ft 468 kts 332°
2026-05-08 04:36 19.51461 10.50237 32877 ft 468 kts 332°
2026-05-08 04:37 19.57387 10.47339 32871 ft 469 kts 332°
2026-05-08 04:37 19.63314 10.44439 32869 ft 469 kts 332°
2026-05-08 04:38 19.69242 10.41535 32878 ft 469 kts 332°
2026-05-08 04:38 19.75173 10.38628 32879 ft 470 kts 332°
2026-05-08 04:39 19.81107 10.35717 32878 ft 470 kts 332°
2026-05-08 04:39 19.87001 10.32822 32881 ft 470 kts 331°
2026-05-08 04:40 19.92935 10.29906 32878 ft 470 kts 331°
2026-05-08 04:40 19.98868 10.26988 32882 ft 470 kts 331°
2026-05-08 04:41 20.04806 10.24066 32883 ft 470 kts 331°
2026-05-08 04:41 20.10748 10.21138 32882 ft 470 kts 331°
2026-05-08 04:42 20.16677 10.18216 32885 ft 470 kts 331°
2026-05-08 04:42 20.22611 10.15287 32877 ft 470 kts 331°
2026-05-08 04:43 20.28534 10.12362 32879 ft 469 kts 331°
2026-05-08 04:43 20.34452 10.09436 32903 ft 469 kts 331°
2026-05-08 04:44 20.40369 10.06509 32901 ft 468 kts 331°
2026-05-08 04:44 20.46276 10.03584 32886 ft 468 kts 331°
2026-05-08 04:45 20.52180 10.00658 32888 ft 468 kts 331°
2026-05-08 04:45 20.58088 9.97728 32886 ft 468 kts 330°
2026-05-08 04:46 20.63997 9.94794 32891 ft 468 kts 330°
2026-05-08 04:46 20.69865 9.91879 32891 ft 468 kts 330°
2026-05-08 04:47 20.75815 9.88920 32891 ft 468 kts 330°
2026-05-08 04:47 20.81680 9.86001 32889 ft 469 kts 330°
2026-05-08 04:48 20.87595 9.83055 32902 ft 469 kts 330°
2026-05-08 04:48 20.93509 9.80106 32892 ft 469 kts 330°
2026-05-08 04:49 20.99432 9.77150 32894 ft 470 kts 330°
2026-05-08 04:49 21.05354 9.74192 32893 ft 470 kts 330°
2026-05-08 04:50 21.11281 9.71229 32894 ft 470 kts 330°
2026-05-08 04:50 21.16212 9.68762 32894 ft 470 kts 330°
2026-05-08 04:51 21.22141 9.65794 32889 ft 470 kts 330°
2026-05-08 04:51 21.28074 9.62821 32893 ft 470 kts 330°
2026-05-08 04:52 21.34002 9.59847 32890 ft 470 kts 330°
2026-05-08 04:52 21.39926 9.56873 32894 ft 470 kts 330°
2026-05-08 04:53 21.45852 9.53895 32892 ft 470 kts 330°
2026-05-08 04:53 21.51778 9.50914 32900 ft 470 kts 330°
2026-05-08 04:54 21.57708 9.47929 32894 ft 470 kts 330°
2026-05-08 04:54 21.63630 9.44945 32892 ft 470 kts 329°
2026-05-08 04:55 21.69550 9.41959 32889 ft 470 kts 329°
2026-05-08 04:55 21.75467 9.38972 32888 ft 470 kts 329°
2026-05-08 04:56 21.81392 9.35978 32881 ft 470 kts 329°
2026-05-08 04:56 21.87308 9.32986 32897 ft 470 kts 329°
2026-05-08 04:57 21.93225 9.30009 32882 ft 471 kts 331°
2026-05-08 04:57 21.99410 9.27553 32884 ft 474 kts 335°
2026-05-08 04:58 22.05645 9.25231 32885 ft 474 kts 335°
2026-05-08 04:58 22.11884 9.22890 32884 ft 474 kts 335°
2026-05-08 04:59 22.18112 9.20530 32880 ft 474 kts 335°
2026-05-08 04:59 22.24339 9.18162 32889 ft 475 kts 334°
2026-05-08 05:00 22.30577 9.15785 32887 ft 475 kts 334°
2026-05-08 05:00 22.36810 9.13410 32882 ft 475 kts 334°
2026-05-08 05:01 22.43041 9.11034 32879 ft 475 kts 334°
2026-05-08 05:01 22.49271 9.08655 32902 ft 475 kts 334°
2026-05-08 05:02 22.55511 9.06271 32903 ft 476 kts 334°
2026-05-08 05:02 22.61751 9.03883 32894 ft 476 kts 334°
2026-05-08 05:03 22.68006 9.01489 32898 ft 477 kts 334°
2026-05-08 05:03 22.74264 8.99091 32888 ft 477 kts 334°
2026-05-08 05:04 22.80520 8.96691 32896 ft 477 kts 334°
2026-05-08 05:04 22.86789 8.94284 32913 ft 478 kts 334°
2026-05-08 05:05 22.93058 8.91875 32906 ft 478 kts 334°
2026-05-08 05:05 22.99292 8.89476 32912 ft 479 kts 334°
2026-05-08 05:06 23.05571 8.87058 32915 ft 479 kts 334°
2026-05-08 05:06 23.11844 8.84640 32917 ft 479 kts 334°
2026-05-08 05:07 23.18125 8.82217 32930 ft 479 kts 334°
2026-05-08 05:07 23.24409 8.79790 32917 ft 479 kts 333°
2026-05-08 05:08 23.30689 8.77361 32930 ft 479 kts 333°
2026-05-08 05:08 23.36975 8.74928 32935 ft 479 kts 333°
2026-05-08 05:09 23.43259 8.72494 32930 ft 480 kts 333°
2026-05-08 05:09 23.49547 8.70055 32936 ft 480 kts 333°
2026-05-08 05:10 23.58999 8.66385 32930 ft 481 kts 333°
2026-05-08 05:11 23.65303 8.63934 32946 ft 481 kts 333°
2026-05-08 05:11 23.71607 8.61480 32942 ft 481 kts 333°
2026-05-08 05:12 23.77908 8.59026 32939 ft 481 kts 333°
2026-05-08 05:12 23.84209 8.56568 32970 ft 481 kts 333°
2026-05-08 05:13 23.90509 8.54109 32949 ft 481 kts 332°
2026-05-08 05:13 23.96811 8.51646 32946 ft 480 kts 332°
2026-05-08 05:14 24.03099 8.49186 32957 ft 480 kts 332°
2026-05-08 05:14 24.09342 8.46741 32958 ft 480 kts 332°
2026-05-08 05:15 24.15625 8.44277 32994 ft 479 kts 332°
2026-05-08 05:15 24.21911 8.41811 32968 ft 479 kts 332°
2026-05-08 05:16 24.28182 8.39348 32955 ft 479 kts 332°
2026-05-08 05:16 24.34444 8.36885 32955 ft 478 kts 332°
2026-05-08 05:17 24.40701 8.34422 32964 ft 478 kts 332°
2026-05-08 05:17 24.46962 8.31954 32974 ft 478 kts 332°
2026-05-08 05:18 24.53216 8.29486 32978 ft 478 kts 332°
2026-05-08 05:18 24.59469 8.27017 32985 ft 478 kts 332°
2026-05-08 05:19 24.65730 8.24541 32986 ft 478 kts 332°
2026-05-08 05:19 24.71990 8.22063 32981 ft 478 kts 332°
2026-05-08 05:20 24.78215 8.19597 32986 ft 478 kts 331°
2026-05-08 05:20 24.84478 8.17113 33015 ft 479 kts 331°
2026-05-08 05:21 24.90749 8.14623 33013 ft 479 kts 331°
2026-05-08 05:21 24.97032 8.12125 33034 ft 480 kts 331°
2026-05-08 05:22 25.03313 8.09626 33024 ft 481 kts 331°
2026-05-08 05:22 25.09606 8.07120 33044 ft 481 kts 331°
2026-05-08 05:23 25.15894 8.04612 33051 ft 481 kts 331°
2026-05-08 05:23 25.22185 8.02100 33045 ft 481 kts 331°
2026-05-08 05:24 25.28481 7.99585 33064 ft 481 kts 331°
2026-05-08 05:24 25.34761 7.97072 33072 ft 480 kts 331°
2026-05-08 05:25 25.41045 7.94555 33060 ft 480 kts 331°
2026-05-08 05:25 25.47327 7.92036 33069 ft 480 kts 331°
2026-05-08 05:26 25.53598 7.89518 33063 ft 479 kts 331°
2026-05-08 05:26 25.59861 7.87001 33054 ft 478 kts 331°
2026-05-08 05:27 25.66115 7.84486 33069 ft 478 kts 331°
2026-05-08 05:27 25.72371 7.81964 33060 ft 478 kts 331°
2026-05-08 05:28 25.78627 7.79441 33068 ft 479 kts 331°
2026-05-08 05:28 25.84883 7.76916 33056 ft 479 kts 331°
2026-05-08 05:29 25.91151 7.74382 33047 ft 479 kts 332°
2026-05-08 05:29 25.97418 7.71847 33037 ft 479 kts 331°
2026-05-08 05:30 26.03688 7.69317 33048 ft 480 kts 332°
2026-05-08 05:30 26.09980 7.66804 33031 ft 481 kts 332°
2026-05-08 05:31 26.16283 7.64288 33030 ft 482 kts 332°
2026-05-08 05:31 26.22552 7.61778 33003 ft 482 kts 332°
2026-05-08 05:32 26.28865 7.59246 33007 ft 483 kts 332°
2026-05-08 05:32 26.35190 7.56706 32987 ft 483 kts 332°
2026-05-08 05:33 26.41528 7.54156 32977 ft 485 kts 332°
2026-05-08 05:33 26.47924 7.51581 32970 ft 486 kts 332°
2026-05-08 05:34 26.54249 7.49031 32974 ft 487 kts 332°
2026-05-08 05:34 26.60675 7.46438 32962 ft 488 kts 332°
2026-05-08 05:35 26.67058 7.43859 32959 ft 488 kts 332°
2026-05-08 05:35 26.73413 7.41289 32966 ft 489 kts 332°
2026-05-08 05:36 26.79818 7.38694 32961 ft 490 kts 332°
2026-05-08 05:36 26.86244 7.36089 32953 ft 491 kts 332°
2026-05-08 05:37 26.92670 7.33480 32944 ft 491 kts 332°
2026-05-08 05:37 26.99081 7.30874 32982 ft 490 kts 332°
2026-05-08 05:38 27.05486 7.28270 32949 ft 489 kts 332°
2026-05-08 05:38 27.10797 7.26106 32950 ft 488 kts 332°
2026-05-08 05:39 27.17164 7.23509 32954 ft 487 kts 332°
2026-05-08 05:39 27.23526 7.20910 32946 ft 486 kts 332°
2026-05-08 05:40 27.29879 7.18312 32969 ft 485 kts 332°
2026-05-08 05:40 27.36211 7.15721 32952 ft 484 kts 332°
2026-05-08 05:41 27.42539 7.13127 32948 ft 483 kts 332°
2026-05-08 05:41 27.48850 7.10537 32943 ft 483 kts 332°
2026-05-08 05:42 27.55172 7.07938 32950 ft 483 kts 332°
2026-05-08 05:42 27.61491 7.05338 32947 ft 484 kts 332°
2026-05-08 05:43 27.67823 7.02729 32976 ft 486 kts 332°
2026-05-08 05:43 27.70999 7.01418 33237 ft 487 kts 332°
2026-05-08 05:43 27.74176 7.00110 33687 ft 484 kts 332°
2026-05-08 05:43 27.77326 6.98813 34154 ft 480 kts 331°
2026-05-08 05:44 27.80441 6.97529 34561 ft 476 kts 331°
2026-05-08 05:44 27.83544 6.96248 34914 ft 474 kts 331°
2026-05-08 05:44 27.86652 6.94960 34923 ft 478 kts 331°
2026-05-08 05:45 27.92891 6.92372 34944 ft 476 kts 331°
2026-05-08 05:45 27.99077 6.89810 34955 ft 472 kts 331°
2026-05-08 05:46 28.05233 6.87254 34948 ft 471 kts 331°
2026-05-08 05:46 28.11466 6.84867 34941 ft 479 kts 338°
2026-05-08 05:47 28.18079 6.83677 34954 ft 492 kts 348°
2026-05-08 05:47 28.24963 6.83472 34954 ft 496 kts 351°
2026-05-08 05:48 28.31865 6.83365 34953 ft 496 kts 351°
2026-05-08 05:48 28.38775 6.83227 34947 ft 496 kts 351°
2026-05-08 05:49 28.45670 6.83055 34944 ft 496 kts 351°
2026-05-08 05:49 28.52571 6.82870 34951 ft 496 kts 351°
2026-05-08 05:50 28.59476 6.82685 34943 ft 496 kts 351°
2026-05-08 05:50 28.66384 6.82501 34941 ft 496 kts 351°
2026-05-08 05:51 28.73290 6.82319 34931 ft 496 kts 351°
2026-05-08 05:51 28.80196 6.82136 34960 ft 496 kts 351°
2026-05-08 05:52 28.87094 6.81954 34940 ft 496 kts 351°
2026-05-08 05:52 28.93995 6.81770 34943 ft 496 kts 351°
2026-05-08 05:53 29.00893 6.81586 34942 ft 496 kts 351°
2026-05-08 05:53 29.07789 6.81403 34967 ft 496 kts 351°
2026-05-08 05:54 29.14692 6.81217 34943 ft 496 kts 352°
2026-05-08 05:54 29.21577 6.81036 34933 ft 495 kts 352°
2026-05-08 05:55 29.28447 6.80852 34932 ft 493 kts 352°
2026-05-08 05:55 29.35294 6.80669 34933 ft 492 kts 352°
2026-05-08 05:56 29.42129 6.80485 34944 ft 491 kts 352°
2026-05-08 05:56 29.48958 6.80302 34933 ft 490 kts 352°
2026-05-08 05:57 29.55784 6.80118 34931 ft 490 kts 352°
2026-05-08 05:57 29.62596 6.79934 34925 ft 490 kts 352°
2026-05-08 05:58 29.69363 6.79752 34941 ft 490 kts 353°
2026-05-08 05:58 29.76177 6.79568 34927 ft 490 kts 353°
2026-05-08 05:59 29.82983 6.79384 34927 ft 489 kts 353°
2026-05-08 05:59 29.89792 6.79200 34927 ft 489 kts 353°
2026-05-08 06:00 29.96590 6.79016 34944 ft 489 kts 353°
2026-05-08 06:00 30.03385 6.78831 34926 ft 488 kts 353°
2026-05-08 06:01 30.10164 6.78648 34919 ft 487 kts 353°
2026-05-08 06:01 30.16927 6.78464 34920 ft 485 kts 353°
2026-05-08 06:02 30.23680 6.78280 34939 ft 484 kts 354°
2026-05-08 06:02 30.30405 6.78095 34927 ft 483 kts 354°
2026-05-08 06:03 30.37119 6.77912 34913 ft 482 kts 354°
2026-05-08 06:03 30.43819 6.77729 34914 ft 481 kts 354°
2026-05-08 06:04 30.50507 6.77546 34916 ft 480 kts 354°
2026-05-08 06:04 30.57178 6.77362 34921 ft 480 kts 354°
2026-05-08 06:05 30.63853 6.77179 34920 ft 480 kts 354°
2026-05-08 06:05 30.70533 6.76994 34922 ft 480 kts 354°
2026-05-08 06:06 30.77217 6.76810 34920 ft 481 kts 354°
2026-05-08 06:06 30.83913 6.76625 34918 ft 481 kts 354°
2026-05-08 06:07 30.90597 6.76441 34908 ft 481 kts 354°
2026-05-08 06:07 30.97237 6.76258 34923 ft 480 kts 354°
2026-05-08 06:08 31.03916 6.76073 34909 ft 479 kts 354°
2026-05-08 06:08 31.10574 6.75888 34920 ft 479 kts 354°
2026-05-08 06:09 31.17222 6.75703 34910 ft 477 kts 354°
2026-05-08 06:09 31.23849 6.75520 34913 ft 475 kts 354°
2026-05-08 06:10 31.30456 6.75335 34919 ft 474 kts 354°
2026-05-08 06:10 31.37050 6.75151 34927 ft 474 kts 354°
2026-05-08 06:11 31.43638 6.74966 34917 ft 473 kts 354°
2026-05-08 06:11 31.50222 6.74782 34917 ft 473 kts 354°
2026-05-08 06:12 31.56801 6.74598 34919 ft 473 kts 354°
2026-05-08 06:12 31.63378 6.74413 34935 ft 473 kts 354°
2026-05-08 06:13 31.69976 6.74227 34924 ft 474 kts 354°
2026-05-08 06:13 31.76568 6.74042 34919 ft 474 kts 354°
2026-05-08 06:14 31.83170 6.73856 34923 ft 474 kts 354°
2026-05-08 06:14 31.89772 6.73670 34935 ft 475 kts 354°
2026-05-08 06:15 31.96376 6.73483 34925 ft 475 kts 354°
2026-05-08 06:15 32.02996 6.73296 34925 ft 475 kts 354°
2026-05-08 06:16 32.09564 6.73110 34926 ft 476 kts 354°
2026-05-08 06:16 32.16181 6.72922 34929 ft 476 kts 354°
2026-05-08 06:17 32.26122 6.72639 34932 ft 477 kts 354°
2026-05-08 06:17 32.32754 6.72451 34931 ft 477 kts 354°
2026-05-08 06:18 32.39386 6.72262 34934 ft 477 kts 354°
2026-05-08 06:18 32.46023 6.72072 34952 ft 477 kts 354°
2026-05-08 06:19 32.52664 6.71882 34937 ft 477 kts 354°
2026-05-08 06:19 32.59307 6.71692 34940 ft 477 kts 354°
2026-05-08 06:20 32.65946 6.71501 34938 ft 477 kts 354°
2026-05-08 06:20 32.72579 6.71310 34955 ft 477 kts 354°
2026-05-08 06:21 32.79214 6.71119 34941 ft 477 kts 354°
2026-05-08 06:21 32.85845 6.70928 34939 ft 476 kts 354°
2026-05-08 06:22 32.92474 6.70737 34941 ft 476 kts 354°
2026-05-08 06:22 32.99090 6.70546 34957 ft 475 kts 354°
2026-05-08 06:23 33.05700 6.70355 34944 ft 475 kts 354°
2026-05-08 06:23 33.12311 6.70163 34946 ft 475 kts 354°
2026-05-08 06:24 33.18913 6.69971 34950 ft 475 kts 354°
2026-05-08 06:24 33.24402 6.69811 34942 ft 475 kts 354°
2026-05-08 06:25 33.31014 6.69618 34933 ft 475 kts 354°
2026-05-08 06:25 33.37615 6.69426 34947 ft 475 kts 354°
2026-05-08 06:26 33.44219 6.69233 34944 ft 475 kts 354°
2026-05-08 06:26 33.50820 6.69040 34957 ft 475 kts 354°
2026-05-08 06:27 33.57432 6.68846 34936 ft 476 kts 354°
2026-05-08 06:27 33.64051 6.68651 34939 ft 476 kts 354°
2026-05-08 06:28 33.70677 6.68457 34941 ft 476 kts 354°
2026-05-08 06:28 33.77312 6.68262 34957 ft 477 kts 354°
2026-05-08 06:29 33.83957 6.68066 34943 ft 478 kts 354°
2026-05-08 06:29 33.90602 6.67869 34940 ft 478 kts 354°
2026-05-08 06:30 33.97266 6.67672 34948 ft 479 kts 354°
2026-05-08 06:30 34.03926 6.67475 34961 ft 479 kts 354°
2026-05-08 06:31 34.10593 6.67278 34947 ft 479 kts 353°
2026-05-08 06:31 34.17266 6.67079 34942 ft 480 kts 353°
2026-05-08 06:32 34.23938 6.66881 34946 ft 480 kts 353°
2026-05-08 06:32 34.30569 6.66683 34962 ft 479 kts 353°
2026-05-08 06:33 34.37243 6.66484 34943 ft 480 kts 353°
2026-05-08 06:33 34.43916 6.66285 34940 ft 480 kts 353°
2026-05-08 06:34 34.50586 6.66085 34940 ft 479 kts 353°
2026-05-08 06:34 34.57255 6.65885 34959 ft 479 kts 353°
2026-05-08 06:35 34.63920 6.65685 34948 ft 479 kts 353°
2026-05-08 06:35 34.70591 6.65484 34953 ft 479 kts 353°
2026-05-08 06:36 34.77263 6.65282 34962 ft 479 kts 353°
2026-05-08 06:36 34.83932 6.65084 34974 ft 480 kts 352°
2026-05-08 06:37 34.90605 6.64892 34974 ft 480 kts 352°
2026-05-08 06:37 34.97277 6.64698 34990 ft 479 kts 352°
2026-05-08 06:38 35.03936 6.64506 34992 ft 478 kts 352°
2026-05-08 06:38 35.10586 6.64313 35007 ft 479 kts 352°
2026-05-08 06:39 35.17254 6.64117 35016 ft 480 kts 352°
2026-05-08 06:39 35.23930 6.63922 35009 ft 480 kts 352°
2026-05-08 06:40 35.30601 6.63726 35017 ft 480 kts 352°
2026-05-08 06:40 35.37279 6.63532 35027 ft 480 kts 352°
2026-05-08 06:41 35.43924 6.63336 35016 ft 480 kts 352°
2026-05-08 06:41 35.50649 6.63138 35022 ft 480 kts 352°
2026-05-08 06:42 35.57329 6.62941 35045 ft 480 kts 352°
2026-05-08 06:42 35.64011 6.62744 35022 ft 481 kts 352°
2026-05-08 06:43 35.70702 6.62546 35023 ft 481 kts 352°
2026-05-08 06:43 35.77392 6.62348 35024 ft 481 kts 352°
2026-05-08 06:44 35.84090 6.62151 35016 ft 482 kts 352°
2026-05-08 06:44 35.90744 6.61952 35025 ft 482 kts 352°
2026-05-08 06:45 35.97454 6.61752 35036 ft 482 kts 352°
2026-05-08 06:45 36.04205 6.61551 35034 ft 482 kts 352°
2026-05-08 06:46 36.10875 6.61352 35055 ft 483 kts 352°
2026-05-08 06:46 36.17603 6.61150 35047 ft 484 kts 352°
2026-05-08 06:47 36.24334 6.60949 35046 ft 484 kts 352°
2026-05-08 06:47 36.31080 6.60974 35047 ft 490 kts 358°
2026-05-08 06:48 36.37877 6.61983 35052 ft 493 kts
2026-05-08 06:48 36.44681 6.63093 35046 ft 493 kts
2026-05-08 06:49 36.51481 6.64163 35025 ft 492 kts
2026-05-08 06:49 36.58282 6.65208 35046 ft 492 kts 360°
2026-05-08 06:50 36.65086 6.66246 35024 ft 493 kts 360°
2026-05-08 06:50 36.71889 6.67283 35017 ft 492 kts 360°
2026-05-08 06:51 36.78683 6.68322 35016 ft 492 kts 360°
2026-05-08 06:51 36.85483 6.69367 35005 ft 493 kts 359°
2026-05-08 06:52 36.92288 6.70415 35005 ft 492 kts 359°
2026-05-08 06:52 36.99086 6.71459 34996 ft 492 kts 359°
2026-05-08 06:53 37.05881 6.72509 35026 ft 492 kts 359°
2026-05-08 06:53 37.12668 6.73559 35007 ft 492 kts 359°
2026-05-08 06:54 37.19464 6.74611 35002 ft 492 kts 359°
2026-05-08 06:54 37.26251 6.75664 35003 ft 492 kts 359°
2026-05-08 06:55 37.33045 6.76720 35007 ft 492 kts 359°
2026-05-08 06:55 37.39844 6.77779 35000 ft 492 kts 359°
2026-05-08 06:56 37.46586 6.78831 35001 ft 491 kts 359°
2026-05-08 06:56 37.53364 6.79891 35021 ft 491 kts 359°
2026-05-08 06:57 37.60136 6.80951 35000 ft 490 kts 359°
2026-05-08 06:57 37.66893 6.82012 34997 ft 488 kts 359°
2026-05-08 06:58 37.73621 6.83070 34995 ft 487 kts 359°
2026-05-08 06:58 37.80342 6.84127 35000 ft 486 kts 359°
2026-05-08 06:59 37.87048 6.85185 34999 ft 485 kts 359°
2026-05-08 06:59 37.93750 6.86244 34994 ft 485 kts 359°
2026-05-08 07:00 38.00443 6.87303 35022 ft 485 kts 359°
2026-05-08 07:00 38.07148 6.88365 34999 ft 486 kts 359°
2026-05-08 07:01 38.13854 6.89431 34995 ft 486 kts 359°
2026-05-08 07:01 38.20570 6.90500 34993 ft 486 kts 359°
2026-05-08 07:02 38.27281 6.91571 34997 ft 486 kts 359°
2026-05-08 07:02 38.34000 6.92644 34994 ft 487 kts 359°